Year,Month,Day,Hour,Minute,Value (Times are PST for temperature in C)
2016,08,24,00,00,15.30
2016,08,24,00,01,15.30
2016,08,24,00,02,15.30
2016,08,24,00,03,15.30
2016,08,24,00,04,15.20
2016,08,24,00,05,15.20
2016,08,24,00,06,15.20
2016,08,24,00,07,15.20
2016,08,24,00,08,15.20
2016,08,24,00,09,15.20
2016,08,24,00,10,15.10
2016,08,24,00,11,15.10
2016,08,24,00,12,15.10
2016,08,24,00,13,15.10
2016,08,24,00,14,15.10
2016,08,24,00,15,15.10
2016,08,24,00,16,15.10
2016,08,24,00,17,15.00
2016,08,24,00,18,15.00
2016,08,24,00,19,15.00
2016,08,24,00,20,15.00
2016,08,24,00,21,15.00
2016,08,24,00,22,14.90
2016,08,24,00,23,14.90
2016,08,24,00,24,14.90
2016,08,24,00,25,14.90
2016,08,24,00,26,14.90
2016,08,24,00,27,14.90
2016,08,24,00,28,14.90
2016,08,24,00,29,14.90
2016,08,24,00,30,14.90
2016,08,24,00,31,14.90
2016,08,24,00,32,14.80
2016,08,24,00,33,14.80
2016,08,24,00,34,14.80
2016,08,24,00,35,14.80
2016,08,24,00,36,14.80
2016,08,24,00,37,14.80
2016,08,24,00,38,14.80
2016,08,24,00,39,14.80
2016,08,24,00,40,14.80
2016,08,24,00,41,14.80
2016,08,24,00,42,14.80
2016,08,24,00,43,14.80
2016,08,24,00,44,14.80
2016,08,24,00,45,14.80
2016,08,24,00,46,14.80
2016,08,24,00,47,14.70
2016,08,24,00,48,14.70
2016,08,24,00,49,14.70
2016,08,24,00,50,14.70
2016,08,24,00,51,14.70
2016,08,24,00,52,14.70
2016,08,24,00,53,14.70
2016,08,24,00,54,14.70
2016,08,24,00,55,14.60
2016,08,24,00,56,14.60
2016,08,24,00,57,14.60
2016,08,24,00,58,14.60
2016,08,24,00,59,14.60
2016,08,24,01,00,14.60
2016,08,24,01,01,14.60
2016,08,24,01,02,14.60
2016,08,24,01,03,14.60
2016,08,24,01,04,14.50
2016,08,24,01,05,14.50
2016,08,24,01,06,14.50
2016,08,24,01,07,14.50
2016,08,24,01,08,14.50
2016,08,24,01,09,14.50
2016,08,24,01,10,14.50
2016,08,24,01,11,14.50
2016,08,24,01,12,14.40
2016,08,24,01,13,14.40
2016,08,24,01,14,14.40
2016,08,24,01,15,14.40
2016,08,24,01,16,14.40
2016,08,24,01,17,14.40
2016,08,24,01,18,14.40
2016,08,24,01,19,14.40
2016,08,24,01,20,14.30
2016,08,24,01,21,14.30
2016,08,24,01,22,14.30
2016,08,24,01,23,14.30
2016,08,24,01,24,14.30
2016,08,24,01,25,14.30
2016,08,24,01,26,14.30
2016,08,24,01,27,14.30
2016,08,24,01,28,14.30
2016,08,24,01,29,14.30
2016,08,24,01,30,14.30
2016,08,24,01,31,14.30
2016,08,24,01,32,14.30
2016,08,24,01,33,14.30
2016,08,24,01,34,14.20
2016,08,24,01,35,14.20
2016,08,24,01,36,14.20
2016,08,24,01,37,14.20
2016,08,24,01,38,14.20
2016,08,24,01,39,14.20
2016,08,24,01,40,14.20
2016,08,24,01,41,14.20
2016,08,24,01,42,14.20
2016,08,24,01,43,14.20
2016,08,24,01,44,14.20
2016,08,24,01,45,14.20
2016,08,24,01,46,14.20
2016,08,24,01,47,14.20
2016,08,24,01,48,14.20
2016,08,24,01,49,14.20
2016,08,24,01,50,14.20
2016,08,24,01,51,14.20
2016,08,24,01,52,14.10
2016,08,24,01,53,14.10
2016,08,24,01,54,14.10
2016,08,24,01,55,14.10
2016,08,24,01,56,14.10
2016,08,24,01,57,14.10
2016,08,24,01,58,14.10
2016,08,24,01,59,14.10
2016,08,24,02,00,14.10
2016,08,24,02,01,14.10
2016,08,24,02,02,14.10
2016,08,24,02,03,14.10
2016,08,24,02,04,14.10
2016,08,24,02,05,14.10
2016,08,24,02,06,14.10
2016,08,24,02,07,14.10
2016,08,24,02,08,14.10
2016,08,24,02,09,14.10
2016,08,24,02,10,14.10
2016,08,24,02,11,14.10
2016,08,24,02,12,14.10
2016,08,24,02,13,14.10
2016,08,24,02,14,14.10
2016,08,24,02,15,14.10
2016,08,24,02,16,14.10
2016,08,24,02,17,14.00
2016,08,24,02,18,14.00
2016,08,24,02,19,14.00
2016,08,24,02,20,14.00
2016,08,24,02,21,14.00
2016,08,24,02,22,14.00
2016,08,24,02,23,14.00
2016,08,24,02,24,13.90
2016,08,24,02,25,13.90
2016,08,24,02,26,13.90
2016,08,24,02,27,13.90
2016,08,24,02,28,13.90
2016,08,24,02,29,13.90
2016,08,24,02,30,13.90
2016,08,24,02,31,13.90
2016,08,24,02,32,13.90
2016,08,24,02,33,13.90
2016,08,24,02,34,13.90
2016,08,24,02,35,13.90
2016,08,24,02,36,13.90
2016,08,24,02,37,13.90
2016,08,24,02,38,13.90
2016,08,24,02,39,13.90
2016,08,24,02,40,13.80
2016,08,24,02,41,13.80
2016,08,24,02,42,13.80
2016,08,24,02,43,13.80
2016,08,24,02,44,13.80
2016,08,24,02,45,13.80
2016,08,24,02,46,13.80
2016,08,24,02,47,13.80
2016,08,24,02,48,13.80
2016,08,24,02,49,13.80
2016,08,24,02,50,13.80
2016,08,24,02,51,13.80
2016,08,24,02,52,13.80
2016,08,24,02,53,13.80
2016,08,24,02,54,13.80
2016,08,24,02,55,13.80
2016,08,24,02,56,13.80
2016,08,24,02,57,13.80
2016,08,24,02,58,13.80
2016,08,24,02,59,13.80
2016,08,24,03,00,13.80
2016,08,24,03,01,13.80
2016,08,24,03,02,13.80
2016,08,24,03,03,13.80
2016,08,24,03,04,13.80
2016,08,24,03,05,13.80
2016,08,24,03,06,13.80
2016,08,24,03,07,13.80
2016,08,24,03,08,13.80
2016,08,24,03,09,13.80
2016,08,24,03,10,13.80
2016,08,24,03,11,13.80
2016,08,24,03,12,13.80
2016,08,24,03,13,13.90
2016,08,24,03,14,13.90
2016,08,24,03,15,13.90
2016,08,24,03,16,13.90
2016,08,24,03,17,13.90
2016,08,24,03,18,13.90
2016,08,24,03,19,13.90
2016,08,24,03,20,13.90
2016,08,24,03,21,13.90
2016,08,24,03,22,13.90
2016,08,24,03,23,13.90
2016,08,24,03,24,13.90
2016,08,24,03,25,13.90
2016,08,24,03,26,13.90
2016,08,24,03,27,13.90
2016,08,24,03,28,13.90
2016,08,24,03,29,13.90
2016,08,24,03,30,13.90
2016,08,24,03,31,13.90
2016,08,24,03,32,13.90
2016,08,24,03,33,13.90
2016,08,24,03,34,13.90
2016,08,24,03,35,13.90
2016,08,24,03,36,13.90
2016,08,24,03,37,13.80
2016,08,24,03,38,13.80
2016,08,24,03,39,13.80
2016,08,24,03,40,13.80
2016,08,24,03,41,13.80
2016,08,24,03,42,13.80
2016,08,24,03,43,13.80
2016,08,24,03,44,13.80
2016,08,24,03,45,13.80
2016,08,24,03,46,13.80
2016,08,24,03,47,13.80
2016,08,24,03,48,13.80
2016,08,24,03,49,13.70
2016,08,24,03,50,13.70
2016,08,24,03,51,13.70
2016,08,24,03,52,13.70
2016,08,24,03,53,13.70
2016,08,24,03,54,13.70
2016,08,24,03,55,13.70
2016,08,24,03,56,13.70
2016,08,24,03,57,13.70
2016,08,24,03,58,13.70
2016,08,24,03,59,13.70
2016,08,24,04,00,13.70
2016,08,24,04,01,13.70
2016,08,24,04,02,13.60
2016,08,24,04,03,13.60
2016,08,24,04,04,13.60
2016,08,24,04,05,13.60
2016,08,24,04,06,13.60
2016,08,24,04,07,13.60
2016,08,24,04,08,13.60
2016,08,24,04,09,13.60
2016,08,24,04,10,13.60
2016,08,24,04,11,13.60
2016,08,24,04,12,13.60
2016,08,24,04,13,13.50
2016,08,24,04,14,13.50
2016,08,24,04,15,13.50
2016,08,24,04,16,13.50
2016,08,24,04,17,13.50
2016,08,24,04,18,13.50
2016,08,24,04,19,13.50
2016,08,24,04,20,13.50
2016,08,24,04,21,13.50
2016,08,24,04,22,13.50
2016,08,24,04,23,13.50
2016,08,24,04,24,13.50
2016,08,24,04,25,13.50
2016,08,24,04,26,13.40
2016,08,24,04,27,13.40
2016,08,24,04,28,13.40
2016,08,24,04,29,13.40
2016,08,24,04,30,13.40
2016,08,24,04,31,13.40
2016,08,24,04,32,13.40
2016,08,24,04,33,13.40
2016,08,24,04,34,13.40
2016,08,24,04,35,13.40
2016,08,24,04,36,13.40
2016,08,24,04,37,13.40
2016,08,24,04,38,13.40
2016,08,24,04,39,13.40
2016,08,24,04,40,13.40
2016,08,24,04,41,13.40
2016,08,24,04,42,13.40
2016,08,24,04,43,13.40
2016,08,24,04,44,13.40
2016,08,24,04,45,13.40
2016,08,24,04,46,13.40
2016,08,24,04,47,13.30
2016,08,24,04,48,13.30
2016,08,24,04,49,13.30
2016,08,24,04,50,13.30
2016,08,24,04,51,13.30
2016,08,24,04,52,13.30
2016,08,24,04,53,13.30
2016,08,24,04,54,13.30
2016,08,24,04,55,13.30
2016,08,24,04,56,13.30
2016,08,24,04,57,13.30
2016,08,24,04,58,13.30
2016,08,24,04,59,13.30
2016,08,24,05,00,13.20
2016,08,24,05,01,13.20
2016,08,24,05,02,13.20
2016,08,24,05,03,13.20
2016,08,24,05,04,13.20
2016,08,24,05,05,13.20
2016,08,24,05,06,13.20
2016,08,24,05,07,13.20
2016,08,24,05,08,13.20
2016,08,24,05,09,13.20
2016,08,24,05,10,13.20
2016,08,24,05,11,13.20
2016,08,24,05,12,13.20
2016,08,24,05,13,13.20
2016,08,24,05,14,13.10
2016,08,24,05,15,13.10
2016,08,24,05,16,13.10
2016,08,24,05,17,13.10
2016,08,24,05,18,13.10
2016,08,24,05,19,13.10
2016,08,24,05,20,13.10
2016,08,24,05,21,13.10
2016,08,24,05,22,13.00
2016,08,24,05,23,13.00
2016,08,24,05,24,13.00
2016,08,24,05,25,13.00
2016,08,24,05,26,13.00
2016,08,24,05,27,13.00
2016,08,24,05,28,13.00
2016,08,24,05,29,13.00
2016,08,24,05,30,12.90
2016,08,24,05,31,12.90
2016,08,24,05,32,12.90
2016,08,24,05,33,12.90
2016,08,24,05,34,12.90
2016,08,24,05,35,12.90
2016,08,24,05,36,12.90
2016,08,24,05,37,12.90
2016,08,24,05,38,12.90
2016,08,24,05,39,12.80
2016,08,24,05,40,12.80
2016,08,24,05,41,12.80
2016,08,24,05,42,12.80
2016,08,24,05,43,12.80
2016,08,24,05,44,12.80
2016,08,24,05,45,12.80
2016,08,24,05,46,12.80
2016,08,24,05,47,12.80
2016,08,24,05,48,12.80
2016,08,24,05,49,12.80
2016,08,24,05,50,12.80
2016,08,24,05,51,12.80
2016,08,24,05,52,12.80
2016,08,24,05,53,12.80
2016,08,24,05,54,12.80
2016,08,24,05,55,12.80
2016,08,24,05,56,12.80
2016,08,24,05,57,12.80
2016,08,24,05,58,12.80
2016,08,24,05,59,12.80
2016,08,24,06,00,12.80
2016,08,24,06,01,12.80
2016,08,24,06,02,12.80
2016,08,24,06,03,12.80
2016,08,24,06,04,12.80
2016,08,24,06,05,12.80
2016,08,24,06,06,12.80
2016,08,24,06,07,12.70
2016,08,24,06,08,12.70
2016,08,24,06,09,12.70
2016,08,24,06,10,12.70
2016,08,24,06,11,12.70
2016,08,24,06,12,12.70
2016,08,24,06,13,12.70
2016,08,24,06,14,12.70
2016,08,24,06,15,12.70
2016,08,24,06,16,12.70
2016,08,24,06,17,12.70
2016,08,24,06,18,12.70
2016,08,24,06,19,12.70
2016,08,24,06,20,12.70
2016,08,24,06,21,12.70
2016,08,24,06,22,12.70
2016,08,24,06,23,12.70
2016,08,24,06,24,12.60
2016,08,24,06,25,12.60
2016,08,24,06,26,12.60
2016,08,24,06,27,12.60
2016,08,24,06,28,12.60
2016,08,24,06,29,12.60
2016,08,24,06,30,12.60
2016,08,24,06,31,12.60
2016,08,24,06,32,12.60
2016,08,24,06,33,12.60
2016,08,24,06,34,12.60
2016,08,24,06,35,12.60
2016,08,24,06,36,12.60
2016,08,24,06,37,12.60
2016,08,24,06,38,12.60
2016,08,24,06,39,12.60
2016,08,24,06,40,12.60
2016,08,24,06,41,12.60
2016,08,24,06,42,12.60
2016,08,24,06,43,12.60
2016,08,24,06,44,12.60
2016,08,24,06,45,12.60
2016,08,24,06,46,12.60
2016,08,24,06,47,12.60
2016,08,24,06,48,12.60
2016,08,24,06,49,12.60
2016,08,24,06,50,12.60
2016,08,24,06,51,12.60
2016,08,24,06,52,12.50
2016,08,24,06,53,12.50
2016,08,24,06,54,12.50
2016,08,24,06,55,12.50
2016,08,24,06,56,12.60
2016,08,24,06,57,12.60
2016,08,24,06,58,12.60
2016,08,24,06,59,12.60
2016,08,24,07,00,12.60
2016,08,24,07,01,12.60
2016,08,24,07,02,12.60
2016,08,24,07,03,12.60
2016,08,24,07,04,12.60
2016,08,24,07,05,12.60
2016,08,24,07,06,12.60
2016,08,24,07,07,12.60
2016,08,24,07,08,12.60
2016,08,24,07,09,12.60
2016,08,24,07,10,12.70
2016,08,24,07,11,12.70
2016,08,24,07,12,12.70
2016,08,24,07,13,12.70
2016,08,24,07,14,12.70
2016,08,24,07,15,12.70
2016,08,24,07,16,12.70
2016,08,24,07,17,12.70
2016,08,24,07,18,12.70
2016,08,24,07,19,12.70
2016,08,24,07,20,12.80
2016,08,24,07,21,12.80
2016,08,24,07,22,12.80
2016,08,24,07,23,12.80
2016,08,24,07,24,12.80
2016,08,24,07,25,12.80
2016,08,24,07,26,12.80
2016,08,24,07,27,12.90
2016,08,24,07,28,12.90
2016,08,24,07,29,12.90
2016,08,24,07,30,12.90
2016,08,24,07,31,12.90
2016,08,24,07,32,12.90
2016,08,24,07,33,12.90
2016,08,24,07,34,13.00
2016,08,24,07,35,13.00
2016,08,24,07,36,13.00
2016,08,24,07,37,13.00
2016,08,24,07,38,13.00
2016,08,24,07,39,13.10
2016,08,24,07,40,13.10
2016,08,24,07,41,13.10
2016,08,24,07,42,13.20
2016,08,24,07,43,13.20
2016,08,24,07,44,13.20
2016,08,24,07,45,13.20
2016,08,24,07,46,13.30
2016,08,24,07,47,13.30
2016,08,24,07,48,13.40
2016,08,24,07,49,13.40
2016,08,24,07,50,13.50
2016,08,24,07,51,13.50
2016,08,24,07,52,13.60
2016,08,24,07,53,13.60
2016,08,24,07,54,13.70
2016,08,24,07,55,13.70
2016,08,24,07,56,13.80
2016,08,24,07,57,13.90
2016,08,24,07,58,13.90
2016,08,24,07,59,14.00
2016,08,24,08,00,14.00
2016,08,24,08,01,14.10
2016,08,24,08,02,14.20
2016,08,24,08,03,14.20
2016,08,24,08,04,14.30
2016,08,24,08,05,14.30
2016,08,24,08,06,14.40
2016,08,24,08,07,14.40
2016,08,24,08,08,14.50
2016,08,24,08,09,14.60
2016,08,24,08,10,14.70
2016,08,24,08,11,14.70
2016,08,24,08,12,14.80
2016,08,24,08,13,14.90
2016,08,24,08,14,15.00
2016,08,24,08,15,15.10
2016,08,24,08,16,15.20
2016,08,24,08,17,15.30
2016,08,24,08,18,15.40
2016,08,24,08,19,15.50
2016,08,24,08,20,15.60
2016,08,24,08,21,15.70
2016,08,24,08,22,15.80
2016,08,24,08,23,15.90
2016,08,24,08,24,16.00
2016,08,24,08,25,16.10
2016,08,24,08,26,16.20
2016,08,24,08,27,16.30
2016,08,24,08,28,16.40
2016,08,24,08,29,16.50
2016,08,24,08,30,16.70
2016,08,24,08,31,16.80
2016,08,24,08,32,16.90
2016,08,24,08,33,17.00
2016,08,24,08,34,17.20
2016,08,24,08,35,17.40
2016,08,24,08,36,17.50
2016,08,24,08,37,17.60
2016,08,24,08,38,17.80
2016,08,24,08,39,17.80
2016,08,24,08,40,17.90
2016,08,24,08,41,18.00
2016,08,24,08,42,18.10
2016,08,24,08,43,18.20
2016,08,24,08,44,18.20
2016,08,24,08,45,18.30
2016,08,24,08,46,18.30
2016,08,24,08,47,18.40
2016,08,24,08,48,18.50
2016,08,24,08,49,18.50
2016,08,24,08,50,18.60
2016,08,24,08,51,18.60
2016,08,24,08,52,18.70
2016,08,24,08,53,18.70
2016,08,24,08,54,18.80
2016,08,24,08,55,18.80
2016,08,24,08,56,18.80
2016,08,24,08,57,18.90
2016,08,24,08,58,18.90
2016,08,24,08,59,19.00
2016,08,24,09,00,19.00
2016,08,24,09,01,19.10
2016,08,24,09,02,19.10
2016,08,24,09,03,19.10
2016,08,24,09,04,19.10
2016,08,24,09,05,19.20
2016,08,24,09,06,19.20
2016,08,24,09,07,19.20
2016,08,24,09,08,19.30
2016,08,24,09,09,19.30
2016,08,24,09,10,19.30
2016,08,24,09,11,19.30
2016,08,24,09,12,19.30
2016,08,24,09,13,19.40
2016,08,24,09,14,19.40
2016,08,24,09,15,19.40
2016,08,24,09,16,19.50
2016,08,24,09,17,19.50
2016,08,24,09,18,19.60
2016,08,24,09,19,19.60
2016,08,24,09,20,19.60
2016,08,24,09,21,19.70
2016,08,24,09,22,19.70
2016,08,24,09,23,19.70
2016,08,24,09,24,19.70
2016,08,24,09,25,19.80
2016,08,24,09,26,19.80
2016,08,24,09,27,19.80
2016,08,24,09,28,19.90
2016,08,24,09,29,19.90
2016,08,24,09,30,19.90
2016,08,24,09,31,20.00
2016,08,24,09,32,20.00
2016,08,24,09,33,20.00
2016,08,24,09,34,19.90
2016,08,24,09,35,19.90
2016,08,24,09,36,20.00
2016,08,24,09,37,20.00
2016,08,24,09,38,20.00
2016,08,24,09,39,20.00
2016,08,24,09,40,20.00
2016,08,24,09,41,20.10
2016,08,24,09,42,20.10
2016,08,24,09,43,20.10
2016,08,24,09,44,20.10
2016,08,24,09,45,20.10
2016,08,24,09,46,20.20
2016,08,24,09,47,20.20
2016,08,24,09,48,20.30
2016,08,24,09,49,20.30
2016,08,24,09,50,20.40
2016,08,24,09,51,20.40
2016,08,24,09,52,20.40
2016,08,24,09,53,20.40
2016,08,24,09,54,20.50
2016,08,24,09,55,20.50
2016,08,24,09,56,20.50
2016,08,24,09,57,20.50
2016,08,24,09,58,20.50
2016,08,24,09,59,20.50
2016,08,24,10,00,20.50
2016,08,24,10,01,20.50
2016,08,24,10,02,20.50
2016,08,24,10,03,20.60
2016,08,24,10,04,20.60
2016,08,24,10,05,20.60
2016,08,24,10,06,20.60
2016,08,24,10,07,20.50
2016,08,24,10,08,20.50
2016,08,24,10,09,20.50
2016,08,24,10,10,20.60
2016,08,24,10,11,20.60
2016,08,24,10,12,20.60
2016,08,24,10,13,20.60
2016,08,24,10,14,20.60
2016,08,24,10,15,20.60
2016,08,24,10,16,20.60
2016,08,24,10,17,20.60
2016,08,24,10,18,20.60
2016,08,24,10,19,20.60
2016,08,24,10,20,20.60
2016,08,24,10,21,20.60
2016,08,24,10,22,20.60
2016,08,24,10,23,20.60
2016,08,24,10,24,20.60
2016,08,24,10,25,20.60
2016,08,24,10,26,20.70
2016,08,24,10,27,20.70
2016,08,24,10,28,20.70
2016,08,24,10,29,20.70
2016,08,24,10,30,20.70
2016,08,24,10,31,20.70
2016,08,24,10,32,20.60
2016,08,24,10,33,20.60
2016,08,24,10,34,20.60
2016,08,24,10,35,20.70
2016,08,24,10,36,20.70
2016,08,24,10,37,20.80
2016,08,24,10,38,20.80
2016,08,24,10,39,20.90
2016,08,24,10,40,21.00
2016,08,24,10,41,21.10
2016,08,24,10,42,21.20
2016,08,24,10,43,21.30
2016,08,24,10,44,21.40
2016,08,24,10,45,21.50
2016,08,24,10,46,21.60
2016,08,24,10,47,21.70
2016,08,24,10,48,21.80
2016,08,24,10,49,21.70
2016,08,24,10,50,21.70
2016,08,24,10,51,21.70
2016,08,24,10,52,21.70
2016,08,24,10,53,21.70
2016,08,24,10,54,21.70
2016,08,24,10,55,21.70
2016,08,24,10,56,21.70
2016,08,24,10,57,21.70
2016,08,24,10,58,21.80
2016,08,24,10,59,21.80
2016,08,24,11,00,21.90
2016,08,24,11,01,22.00
2016,08,24,11,02,22.00
2016,08,24,11,03,21.90
2016,08,24,11,04,21.90
2016,08,24,11,05,21.90
2016,08,24,11,06,22.00
2016,08,24,11,07,22.00
2016,08,24,11,08,22.10
2016,08,24,11,09,22.10
2016,08,24,11,10,22.10
2016,08,24,11,11,22.10
2016,08,24,11,12,22.10
2016,08,24,11,13,22.10
2016,08,24,11,14,22.10
2016,08,24,11,15,22.10
2016,08,24,11,16,22.10
2016,08,24,11,17,22.10
2016,08,24,11,18,22.10
2016,08,24,11,19,22.20
2016,08,24,11,20,22.20
2016,08,24,11,21,22.20
2016,08,24,11,22,22.20
2016,08,24,11,23,22.30
2016,08,24,11,24,22.40
2016,08,24,11,25,22.50
2016,08,24,11,26,22.60
2016,08,24,11,27,22.70
2016,08,24,11,28,22.60
2016,08,24,11,29,22.70
2016,08,24,11,30,22.70
2016,08,24,11,31,22.70
2016,08,24,11,32,22.70
2016,08,24,11,33,22.70
2016,08,24,11,34,22.70
2016,08,24,11,35,22.70
2016,08,24,11,36,22.70
2016,08,24,11,37,22.70
2016,08,24,11,38,22.80
2016,08,24,11,39,22.70
2016,08,24,11,40,22.70
2016,08,24,11,41,22.70
2016,08,24,11,42,22.70
2016,08,24,11,43,22.70
2016,08,24,11,44,22.70
2016,08,24,11,45,22.70
2016,08,24,11,46,22.70
2016,08,24,11,47,22.70
2016,08,24,11,48,22.70
2016,08,24,11,49,22.70
2016,08,24,11,50,22.80
2016,08,24,11,51,22.90
2016,08,24,11,52,22.90
2016,08,24,11,53,23.00
2016,08,24,11,54,23.10
2016,08,24,11,55,23.10
2016,08,24,11,56,23.10
2016,08,24,11,57,23.10
2016,08,24,11,58,23.20
2016,08,24,11,59,23.10
2016,08,24,12,00,23.10
2016,08,24,12,01,23.10
2016,08,24,12,02,23.00
2016,08,24,12,03,22.90
2016,08,24,12,04,23.00
2016,08,24,12,05,23.00
2016,08,24,12,06,23.00
2016,08,24,12,07,23.10
2016,08,24,12,08,23.10
2016,08,24,12,09,23.20
2016,08,24,12,10,23.20
2016,08,24,12,11,23.20
2016,08,24,12,12,23.20
2016,08,24,12,13,23.10
2016,08,24,12,14,23.20
2016,08,24,12,15,23.20
2016,08,24,12,16,23.20
2016,08,24,12,17,23.30
2016,08,24,12,18,23.30
2016,08,24,12,19,23.30
2016,08,24,12,20,23.30
2016,08,24,12,21,23.40
2016,08,24,12,22,23.40
2016,08,24,12,23,23.50
2016,08,24,12,24,23.50
2016,08,24,12,25,23.60
2016,08,24,12,26,23.60
2016,08,24,12,27,23.70
2016,08,24,12,28,23.70
2016,08,24,12,29,23.70
2016,08,24,12,30,23.70
2016,08,24,12,31,23.70
2016,08,24,12,32,23.70
2016,08,24,12,33,23.70
2016,08,24,12,34,23.80
2016,08,24,12,35,23.80
2016,08,24,12,36,23.80
2016,08,24,12,37,23.80
2016,08,24,12,38,23.80
2016,08,24,12,39,23.80
2016,08,24,12,40,23.80
2016,08,24,12,41,23.80
2016,08,24,12,42,23.90
2016,08,24,12,43,23.90
2016,08,24,12,44,23.90
2016,08,24,12,45,23.90
2016,08,24,12,46,24.00
2016,08,24,12,47,24.00
2016,08,24,12,48,24.00
2016,08,24,12,49,24.00
2016,08,24,12,50,24.00
2016,08,24,12,51,24.00
2016,08,24,12,52,24.00
2016,08,24,12,53,24.00
2016,08,24,12,54,23.90
2016,08,24,12,55,23.90
2016,08,24,12,56,23.90
2016,08,24,12,57,23.90
2016,08,24,12,58,24.00
2016,08,24,12,59,24.00
2016,08,24,13,00,24.00
2016,08,24,13,01,24.00
2016,08,24,13,02,24.10
2016,08,24,13,03,24.10
2016,08,24,13,04,24.10
2016,08,24,13,05,24.20
2016,08,24,13,06,24.20
2016,08,24,13,07,24.20
2016,08,24,13,08,24.20
2016,08,24,13,09,24.20
2016,08,24,13,10,24.20
2016,08,24,13,11,24.20
2016,08,24,13,12,24.20
2016,08,24,13,13,24.20
2016,08,24,13,14,24.20
2016,08,24,13,15,24.30
2016,08,24,13,16,24.30
2016,08,24,13,17,24.40
2016,08,24,13,18,24.40
2016,08,24,13,19,24.40
2016,08,24,13,20,24.40
2016,08,24,13,21,24.40
2016,08,24,13,22,24.30
2016,08,24,13,23,24.30
2016,08,24,13,24,24.30
2016,08,24,13,25,24.30
2016,08,24,13,26,24.40
2016,08,24,13,27,24.40
2016,08,24,13,28,24.50
2016,08,24,13,29,24.50
2016,08,24,13,30,24.60
2016,08,24,13,31,24.60
2016,08,24,13,32,24.70
2016,08,24,13,33,24.70
2016,08,24,13,34,24.70
2016,08,24,13,35,24.70
2016,08,24,13,36,24.70
2016,08,24,13,37,24.70
2016,08,24,13,38,24.70
2016,08,24,13,39,24.70
2016,08,24,13,40,24.70
2016,08,24,13,41,24.70
2016,08,24,13,42,24.60
2016,08,24,13,43,24.60
2016,08,24,13,44,24.60
2016,08,24,13,45,24.70
2016,08,24,13,46,24.70
2016,08,24,13,47,24.80
2016,08,24,13,48,24.90
2016,08,24,13,49,24.90
2016,08,24,13,50,25.00
2016,08,24,13,51,25.00
2016,08,24,13,52,25.00
2016,08,24,13,53,25.00
2016,08,24,13,54,25.00
2016,08,24,13,55,25.00
2016,08,24,13,56,25.00
2016,08,24,13,57,24.90
2016,08,24,13,58,24.90
2016,08,24,13,59,24.90
2016,08,24,14,00,24.90
2016,08,24,14,01,24.90
2016,08,24,14,02,25.00
2016,08,24,14,03,25.00
2016,08,24,14,04,25.00
2016,08,24,14,05,25.00
2016,08,24,14,06,25.00
2016,08,24,14,07,25.00
2016,08,24,14,08,25.00
2016,08,24,14,09,25.00
2016,08,24,14,10,25.00
2016,08,24,14,11,25.10
2016,08,24,14,12,25.10
2016,08,24,14,13,25.20
2016,08,24,14,14,25.30
2016,08,24,14,15,25.40
2016,08,24,14,16,25.50
2016,08,24,14,17,25.60
2016,08,24,14,18,25.60
2016,08,24,14,19,25.70
2016,08,24,14,20,25.70
2016,08,24,14,21,25.70
2016,08,24,14,22,25.70
2016,08,24,14,23,25.60
2016,08,24,14,24,25.60
2016,08,24,14,25,25.60
2016,08,24,14,26,25.60
2016,08,24,14,27,25.70
2016,08,24,14,28,25.70
2016,08,24,14,29,25.70
2016,08,24,14,30,25.70
2016,08,24,14,31,25.70
2016,08,24,14,32,25.70
2016,08,24,14,33,25.70
2016,08,24,14,34,25.70
2016,08,24,14,35,25.70
2016,08,24,14,36,25.70
2016,08,24,14,37,25.80
2016,08,24,14,38,25.80
2016,08,24,14,39,25.80
2016,08,24,14,40,25.90
2016,08,24,14,41,26.00
2016,08,24,14,42,26.10
2016,08,24,14,43,26.20
2016,08,24,14,44,26.30
2016,08,24,14,45,26.40
2016,08,24,14,46,26.50
2016,08,24,14,47,26.70
2016,08,24,14,48,26.70
2016,08,24,14,49,26.80
2016,08,24,14,50,26.80
2016,08,24,14,51,26.80
2016,08,24,14,52,26.90
2016,08,24,14,53,26.90
2016,08,24,14,54,27.00
2016,08,24,14,55,27.00
2016,08,24,14,56,27.10
2016,08,24,14,57,27.20
2016,08,24,14,58,27.20
2016,08,24,14,59,27.20
2016,08,24,15,00,27.30
2016,08,24,15,01,27.30
2016,08,24,15,02,27.30
2016,08,24,15,03,27.30
2016,08,24,15,04,27.30
2016,08,24,15,05,27.30
2016,08,24,15,06,27.30
2016,08,24,15,07,27.30
2016,08,24,15,08,27.30
2016,08,24,15,09,27.20
2016,08,24,15,10,27.20
2016,08,24,15,11,27.10
2016,08,24,15,12,27.00
2016,08,24,15,13,27.00
2016,08,24,15,14,26.90
2016,08,24,15,15,26.90
2016,08,24,15,16,26.90
2016,08,24,15,17,26.90
2016,08,24,15,18,27.00
2016,08,24,15,19,27.00
2016,08,24,15,20,27.00
2016,08,24,15,21,27.10
2016,08,24,15,22,27.10
2016,08,24,15,23,27.20
2016,08,24,15,24,27.20
2016,08,24,15,25,27.20
2016,08,24,15,26,27.20
2016,08,24,15,27,27.20
2016,08,24,15,28,27.20
2016,08,24,15,29,27.30
2016,08,24,15,30,27.30
2016,08,24,15,31,27.30
2016,08,24,15,32,27.30
2016,08,24,15,33,27.40
2016,08,24,15,34,27.40
2016,08,24,15,35,27.50
2016,08,24,15,36,27.60
2016,08,24,15,37,27.60
2016,08,24,15,38,27.60
2016,08,24,15,39,27.60
2016,08,24,15,40,27.60
2016,08,24,15,41,27.50
2016,08,24,15,42,27.50
2016,08,24,15,43,27.50
2016,08,24,15,44,27.60
2016,08,24,15,45,27.60
2016,08,24,15,46,27.60
2016,08,24,15,47,27.60
2016,08,24,15,48,27.60
2016,08,24,15,49,27.60
2016,08,24,15,50,27.60
2016,08,24,15,51,27.60
2016,08,24,15,52,27.70
2016,08,24,15,53,27.80
2016,08,24,15,54,27.80
2016,08,24,15,55,27.80
2016,08,24,15,56,27.80
2016,08,24,15,57,27.90
2016,08,24,15,58,27.90
2016,08,24,15,59,27.90
2016,08,24,16,00,28.00
2016,08,24,16,01,28.00
2016,08,24,16,02,28.10
2016,08,24,16,03,28.00
2016,08,24,16,04,28.00
2016,08,24,16,05,27.90
2016,08,24,16,06,27.90
2016,08,24,16,07,27.90
2016,08,24,16,08,27.90
2016,08,24,16,09,27.90
2016,08,24,16,10,28.00
2016,08,24,16,11,27.90
2016,08,24,16,12,27.90
2016,08,24,16,13,27.90
2016,08,24,16,14,27.90
2016,08,24,16,15,27.90
2016,08,24,16,16,27.90
2016,08,24,16,17,27.90
2016,08,24,16,18,27.90
2016,08,24,16,19,27.90
2016,08,24,16,20,28.00
2016,08,24,16,21,28.00
2016,08,24,16,22,28.00
2016,08,24,16,23,28.10
2016,08,24,16,24,28.10
2016,08,24,16,25,28.10
2016,08,24,16,26,28.10
2016,08,24,16,27,28.10
2016,08,24,16,28,28.10
2016,08,24,16,29,28.10
2016,08,24,16,30,28.10
2016,08,24,16,31,28.10
2016,08,24,16,32,28.10
2016,08,24,16,33,28.10
2016,08,24,16,34,28.10
2016,08,24,16,35,28.10
2016,08,24,16,36,28.10
2016,08,24,16,37,28.20
2016,08,24,16,38,28.20
2016,08,24,16,39,28.20
2016,08,24,16,40,28.20
2016,08,24,16,41,28.20
2016,08,24,16,42,28.20
2016,08,24,16,43,28.20
2016,08,24,16,44,28.30
2016,08,24,16,45,28.40
2016,08,24,16,46,28.40
2016,08,24,16,47,28.50
2016,08,24,16,48,28.50
2016,08,24,16,49,28.40
2016,08,24,16,50,28.40
2016,08,24,16,51,28.40
2016,08,24,16,52,28.40
2016,08,24,16,53,28.40
2016,08,24,16,54,28.40
2016,08,24,16,55,28.40
2016,08,24,16,56,28.40
2016,08,24,16,57,28.40
2016,08,24,16,58,28.40
2016,08,24,16,59,28.40
2016,08,24,17,00,28.40
2016,08,24,17,01,28.40
2016,08,24,17,02,28.40
2016,08,24,17,03,28.40
2016,08,24,17,04,28.40
2016,08,24,17,05,28.40
2016,08,24,17,06,28.50
2016,08,24,17,07,28.50
2016,08,24,17,08,28.60
2016,08,24,17,09,28.60
2016,08,24,17,10,28.70
2016,08,24,17,11,28.70
2016,08,24,17,12,28.70
2016,08,24,17,13,28.70
2016,08,24,17,14,28.70
2016,08,24,17,15,28.70
2016,08,24,17,16,28.70
2016,08,24,17,17,28.70
2016,08,24,17,18,28.70
2016,08,24,17,19,28.70